Location: Kellogg
(38.0159°N, 90.0546°W)
Time: 08:54:49
(UTC+00:00)

Altair - Pass Details

Date: 13 September 2024
Orbit: 1501 x 1682 km, 47.2° (Epoch: 07 October)

Event Time Altitude Azimuth Distance (km) Brightness Sun altitude
Rises 14:35:47 0° 300° (WNW) 4,939 9.6 32.8°
Reaches altitude 10° 14:38:59 10° 301° (WNW) 3,947 9.2 33.4°
Maximum altitude 14:49:12 87° 32° (NNE) 1,666 8.4 35.2°
Drops below altitude 10° 14:59:07 10° 122° (ESE) 3,843 10.9 36.9°
Sets 15:02:11 0° 122° (ESE) 4,804 11.1 37.4°
